CW0498 Weather Reports


Display with metric or nautical units.
time (UTC)temp
F
wind
direction
speed
MPH
gust
MPH
rain 1hr
in
rain 24hr
in
rain mn
in
humidity
%
barometer
mb
20260509131543 61 0 0.0 1.0 0.00 0.00 0.00 95 1013.1
20260509130042 61 0 0.0 1.0 0.00 0.00 0.00 96 1012.7
20260509124604 60 0 0.0 0.0 0.00 0.00 0.00 96 1012.8
20260509123038 59 0 0.0 0.0 0.00 0.00 0.00 96 1012.8
20260509121555 59 0 0.0 0.0 0.00 0.00 0.00 96 1012.5
20260509120054 58 0 0.0 0.0 0.00 0.00 0.00 96 1012.5
20260509114543 58 0 0.0 0.0 0.00 0.00 0.00 96 1012.7
20260509113037 58 0 0.0 0.0 0.00 0.00 0.00 96 1012.4
20260509111543 57 0 0.0 0.0 0.00 0.00 0.00 96 1012.5
20260509110047 57 0 0.0 0.0 0.00 0.00 0.00 96 1012.5
20260509104540 57 0 0.0 0.0 0.00 0.00 0.00 96 1012.3
20260509103048 57 0 0.0 0.0 0.00 0.00 0.00 96 1012.1
20260509101546 57 0 0.0 0.0 0.00 0.00 0.00 96 1012.4
20260509100052 57 0 0.0 0.0 0.00 0.00 0.00 96 1012.4
20260509094550 57 0 0.0 0.0 0.00 0.00 0.00 96 1013.2
20260509093051 56 0 0.0 0.0 0.00 0.00 0.00 96 1013.2
20260509091542 56 0 0.0 0.0 0.00 0.00 0.00 96 1013.1
20260509090040 56 0 0.0 0.0 0.00 0.00 0.00 96 1012.5
20260509084538 56 0 0.0 0.0 0.00 0.00 0.00 96 1012.5
20260509083040 56 0 0.0 0.0 0.00 0.00 0.00 96 1012.7
20260509081548 56 0 0.0 0.0 0.00 0.00 0.00 95 1013.0
20260509080044 55 0 0.0 0.0 0.00 0.00 0.00 95 1012.4
20260509074540 55 0 0.0 0.0 0.00 0.00 0.00 95 1012.5
20260509073049 54 0 0.0 0.0 0.00 0.00 0.00 95 1012.8
20260509071553 54 0 0.0 0.0 0.00 0.00 0.00 95 1012.5
20260509070048 55 0 0.0 0.0 0.00 0.00 0.00 95 1012.3
20260509064544 55 0 0.0 0.0 0.00 0.00 0.00 95 1012.3
20260509063044 55 0 0.0 0.0 0.00 0.00 0.00 95 1012.9
20260509061549 56 0 0.0 0.0 0.00 0.00 0.00 95 1013.4
20260509060048 55 0 0.0 0.0 0.00 0.00 0.00 95 1013.6
20260509054603 55 0 0.0 0.0 0.00 0.00 0.00 95 1014.0
20260509053045 55 0 0.0 0.0 0.00 0.00 0.00 95 1014.2
20260509051544 55 0 0.0 0.0 0.00 0.00 0.00 95 1013.8
20260509050055 55 0 0.0 0.0 0.00 0.00 0.00 94 1013.8
20260509044547 56 0 0.0 0.0 0.00 0.00 0.00 94 1013.8
20260509043038 56 0 0.0 0.0 0.00 0.00 0.00 94 1014.1
20260509041547 56 0 0.0 0.0 0.00 0.00 0.00 93 1014.1
20260509040053 56 0 0.0 0.0 0.00 0.00 0.00 93 1014.2
20260509034557 56 0 0.0 0.0 0.00 0.00 0.00 92 1014.7
20260509033043 56 0 0.0 0.0 0.00 0.00 0.00 92 1014.6
20260509031552 57 0 0.0 0.0 0.00 0.00 0.00 91 1014.7
20260509030039 57 0 0.0 0.0 0.00 0.00 0.00 91 1014.6
20260509024543 57 0 0.0 0.0 0.00 0.00 0.00 90 1014.7
20260509023055 58 0 0.0 0.0 0.00 0.00 0.00 89 1014.8
20260509021544 59 0 0.0 0.0 0.00 0.00 0.00 88 1014.6
20260509020048 59 0 0.0 0.0 0.00 0.00 0.00 86 1015.0
20260509014545 60 0 0.0 0.0 0.00 0.00 0.00 85 1014.8
20260509013106 60 0 0.0 0.0 0.00 0.00 0.00 83 1014.7
20260509011543 60 0 0.0 0.0 0.00 0.00 0.00 81 1014.7
20260509010044 61 0 0.0 0.0 0.00 0.00 0.00 80 1014.6
20260509004543 61 0 0.0 0.0 0.00 0.00 0.00 81 1014.5
20260509003040 61 0 0.0 0.0 0.00 0.00 0.00 79 1014.6
20260509001545 62 0 0.0 0.0 0.00 0.00 0.00 79 1014.7
20260509000047 63 0 0.0 0.0 0.00 0.00 0.00 77 1014.7
20260508234543 64 0 0.0 0.0 0.00 0.00 0.00 75 1014.7
20260508233043 64 0 0.0 1.0 0.00 0.00 0.00 75 1014.6
20260508231545 65 0 0.0 0.0 0.00 0.00 0.00 77 1014.3
20260508230055 66 0 0.0 0.0 0.00 0.00 0.00 74 1014.4
20260508224600 67 0 0.0 0.0 0.00 0.00 0.00 73 1014.3
20260508223045 67 0 0.0 0.0 0.00 0.00 0.00 71 1014.3
20260508221554 68 0 0.0 0.0 0.00 0.00 0.00 68 1014.4
20260508220040 68 0 0.0 0.0 0.00 0.00 0.00 67 1014.5
20260508214547 68 0 0.0 1.0 0.00 0.00 0.00 67 1014.5
20260508213101 69 0 0.0 1.0 0.00 0.00 0.00 65 1014.5
20260508211539 69 0 0.0 0.0 0.00 0.00 0.00 65 1014.4
20260508210039 69 0 0.0 0.0 0.00 0.00 0.00 66 1014.9
20260508204544 69 0 0.0 0.0 0.00 0.00 0.00 63 1014.4
20260508203047 70 0 0.0 1.0 0.00 0.00 0.00 61 1014.8
20260508201541 70 0 0.0 0.0 0.00 0.00 0.00 61 1015.0
20260508200053 70 229 0.0 1.0 0.00 0.00 0.00 59 1015.1
20260508194545 70 0 0.0 0.0 0.00 0.00 0.00 62 1014.6
20260508193116 70 0 0.0 2.0 0.00 0.00 0.00 60 1015.2
20260508191543 72 0 0.0 1.0 0.00 0.00 0.00 56 1015.3
20260508190041 73 0 0.0 1.0 0.00 0.00 0.00 57 1015.6
20260508184607 72 0 0.0 0.0 0.00 0.00 0.00 57 1015.8
20260508183045 71 0 0.0 2.0 0.00 0.00 0.00 58 1016.0
20260508181543 71 111 0.0 1.0 0.00 0.00 0.00 53 1016.1
20260508180056 69 0 0.0 1.0 0.00 0.00 0.00 61 1016.2
20260508174557 69 251 0.0 0.0 0.00 0.00 0.00 61 1016.3
20260508173037 68 251 0.0 3.0 0.00 0.00 0.00 60 1016.5
20260508171607 67 270 0.0 1.0 0.00 0.00 0.00 70 1016.7
20260508170045 66 0 0.0 2.0 0.00 0.00 0.00 73 1017.1
20260508164544 65 223 1.0 3.0 0.00 0.00 0.00 80 1017.4
20260508163043 64 218 0.0 2.0 0.00 0.00 0.00 84 1017.8
20260508161556 63 0 0.0 2.0 0.00 0.00 0.00 90 1018.0
20260508160040 63 0 0.0 0.0 0.00 0.00 0.00 95 1018.3
20260508154544 61 0 0.0 1.0 0.00 0.00 0.00 96 1018.4
20260508153047 60 0 0.0 2.0 0.00 0.00 0.00 96 1018.6
20260508151549 60 0 0.0 0.0 0.00 0.00 0.00 97 1018.6
20260508150052 59 0 0.0 0.0 0.00 0.00 0.00 97 1018.4
20260508144543 58 0 0.0 0.0 0.00 0.00 0.00 97 1018.7
20260508143039 57 0 0.0 1.0 0.00 0.00 0.00 97 1018.8
20260508141538 56 0 0.0 0.0 0.00 0.00 0.00 97 1018.8
20260508140049 55 0 0.0 1.0 0.00 0.00 0.00 97 1018.5
20260508134545 54 0 0.0 1.0 0.00 0.06 0.00 96 1018.7
20260508133101 54 0 0.0 0.0 0.00 0.06 0.00 97 1018.8